DLH78P EDDM-EDDF

Flight info

Callsign DLH78P
Flight time 0h 38m
Altitude 24000
Route GIVMI6S GIVMI Y101 ERNAS T161 DEBHI DEBHI1B
Aircraft A388/J-SADE2E3FGHIJ3J4J5M1RWXY/LB1D1

Departure

Time 2026-05-07 16:22
Airport Munich Airport (EDDM)

Arrival

Time 2026-05-07 17:00
Airport Frankfurt Main Airport (EDDF)
Time Latitude Longitude Altitude Speed Heading
2026-05-07 15:53 48.35531 11.79709 1468 ft 0 kts 83°
2026-05-07 16:02 48.35530 11.79701 1465 ft 2 kts 83°
2026-05-07 16:02 48.35527 11.79678 1464 ft 2 kts 80°
2026-05-07 16:02 48.35524 11.79654 1467 ft 2 kts 76°
2026-05-07 16:02 48.35519 11.79630 1464 ft 2 kts 70°
2026-05-07 16:03 48.35511 11.79608 1476 ft 2 kts 58°
2026-05-07 16:03 48.35500 11.79591 1464 ft 2 kts 33°
2026-05-07 16:03 48.35484 11.79584 1464 ft 2 kts
2026-05-07 16:03 48.35476 11.79585 1464 ft 0 kts 358°
2026-05-07 16:06 48.35477 11.79585 1464 ft 0 kts 358°
2026-05-07 16:06 48.35488 11.79584 1464 ft 3 kts 356°
2026-05-07 16:06 48.35534 11.79580 1474 ft 7 kts 356°
2026-05-07 16:06 48.35581 11.79572 1472 ft 7 kts 352°
2026-05-07 16:07 48.35628 11.79563 1474 ft 7 kts 352°
2026-05-07 16:07 48.35673 11.79553 1475 ft 7 kts 352°
2026-05-07 16:07 48.35719 11.79544 1470 ft 7 kts 352°
2026-05-07 16:07 48.35765 11.79534 1468 ft 7 kts 352°
2026-05-07 16:08 48.35810 11.79525 1470 ft 7 kts 353°
2026-05-07 16:08 48.35814 11.79524 1470 ft 0 kts 353°
2026-05-07 16:09 48.35828 11.79522 1474 ft 6 kts 353°
2026-05-07 16:09 48.35899 11.79510 1466 ft 14 kts 353°
2026-05-07 16:10 48.35996 11.79493 1472 ft 13 kts 353°
2026-05-07 16:10 48.36082 11.79479 1470 ft 12 kts 355°
2026-05-07 16:10 48.36159 11.79472 1469 ft 10 kts
2026-05-07 16:10 48.36203 11.79510 1466 ft 6 kts 60°
2026-05-07 16:11 48.36216 11.79557 1470 ft 3 kts 86°
2026-05-07 16:11 48.36219 11.79590 1476 ft 3 kts 83°
2026-05-07 16:11 48.36222 11.79630 1466 ft 4 kts 83°
2026-05-07 16:11 48.36226 11.79678 1467 ft 5 kts 83°
2026-05-07 16:12 48.36228 11.79704 1467 ft 0 kts 83°
2026-05-07 16:12 48.36228 11.79705 1467 ft 1 kts 83°
2026-05-07 16:12 48.36234 11.79762 1463 ft 7 kts 81°
2026-05-07 16:12 48.36243 11.79838 1472 ft 8 kts 78°
2026-05-07 16:13 48.36250 11.79919 1463 ft 8 kts 85°
2026-05-07 16:13 48.36254 11.80003 1476 ft 8 kts 83°
2026-05-07 16:13 48.36258 11.80060 1473 ft 8 kts 84°
2026-05-07 16:13 48.36265 11.80150 1463 ft 9 kts 83°
2026-05-07 16:14 48.36272 11.80246 1463 ft 9 kts 83°
2026-05-07 16:14 48.36280 11.80345 1465 ft 10 kts 83°
2026-05-07 16:14 48.36287 11.80448 1468 ft 10 kts 83°
2026-05-07 16:14 48.36295 11.80552 1472 ft 10 kts 83°
2026-05-07 16:15 48.36304 11.80639 1471 ft 10 kts 81°
2026-05-07 16:15 48.36308 11.80674 1465 ft 13 kts 80°
2026-05-07 16:15 48.36318 11.80764 1471 ft 12 kts 81°
2026-05-07 16:15 48.36328 11.80878 1476 ft 11 kts 84°
2026-05-07 16:16 48.36334 11.80996 1476 ft 13 kts 85°
2026-05-07 16:16 48.36341 11.81155 1468 ft 15 kts 94°
2026-05-07 16:16 48.36302 11.81251 1465 ft 9 kts 138°
2026-05-07 16:16 48.36260 11.81323 1467 ft 8 kts 114°
2026-05-07 16:17 48.36256 11.81345 1467 ft 0 kts 88°
2026-05-07 16:18 48.36256 11.81350 1472 ft 5 kts 88°
2026-05-07 16:18 48.36258 11.81423 1476 ft 8 kts 88°
2026-05-07 16:18 48.36263 11.81520 1470 ft 10 kts 84°
2026-05-07 16:19 48.36271 11.81638 1464 ft 12 kts 84°
2026-05-07 16:19 48.36278 11.81759 1467 ft 12 kts 84°
2026-05-07 16:19 48.36287 11.81890 1466 ft 13 kts 84°
2026-05-07 16:19 48.36297 11.82020 1471 ft 13 kts 83°
2026-05-07 16:20 48.36309 11.82149 1465 ft 12 kts 77°
2026-05-07 16:20 48.36344 11.82256 1464 ft 10 kts 49°
2026-05-07 16:20 48.36381 11.82284 1467 ft 5 kts 13°
2026-05-07 16:20 48.36430 11.82295 1465 ft 9 kts
2026-05-07 16:21 48.36508 11.82288 1472 ft 13 kts 346°
2026-05-07 16:21 48.36587 11.82219 1466 ft 15 kts 311°
2026-05-07 16:21 48.36658 11.82077 1459 ft 17 kts 299°
2026-05-07 16:21 48.36673 11.81933 1466 ft 14 kts 264°
2026-05-07 16:22 48.36630 11.81328 1462 ft 109 kts 264°
2026-05-07 16:22 48.36525 11.79765 1633 ft 177 kts 266°
2026-05-07 16:22 48.36387 11.77830 2705 ft 191 kts 263°
2026-05-07 16:22 48.36224 11.75813 3780 ft 205 kts 263°
2026-05-07 16:23 48.36081 11.73557 4728 ft 227 kts 262°
2026-05-07 16:23 48.35782 11.71126 5841 ft 241 kts 260°
2026-05-07 16:23 48.35678 11.68602 6636 ft 242 kts 277°
2026-05-07 16:23 48.36223 11.66252 6935 ft 238 kts 298°
2026-05-07 16:24 48.37172 11.64149 7026 ft 255 kts 302°
2026-05-07 16:24 48.38174 11.61867 7020 ft 266 kts 301°
2026-05-07 16:24 48.39183 11.59463 7019 ft 268 kts 300°
2026-05-07 16:24 48.40141 11.57123 7232 ft 271 kts 300°
2026-05-07 16:25 48.41145 11.54650 8125 ft 276 kts 299°
2026-05-07 16:25 48.42140 11.52196 10027 ft 271 kts 299°
2026-05-07 16:25 48.43132 11.49746 11672 ft 279 kts 298°
2026-05-07 16:25 48.44138 11.47257 13347 ft 285 kts 298°
2026-05-07 16:26 48.45268 11.44750 14960 ft 297 kts 309°
2026-05-07 16:26 48.46972 11.42926 16743 ft 308 kts 332°
2026-05-07 16:26 48.49078 11.42058 18370 ft 324 kts 345°
2026-05-07 16:26 48.51393 11.41443 19253 ft 352 kts 347°
2026-05-07 16:27 48.53909 11.40821 20015 ft 380 kts 347°
2026-05-07 16:27 48.56575 11.40147 21127 ft 393 kts 347°
2026-05-07 16:27 48.59293 11.39437 22441 ft 401 kts 347°
2026-05-07 16:27 48.62059 11.38694 23236 ft 407 kts 347°
2026-05-07 16:28 48.64852 11.37932 23665 ft 410 kts 347°
2026-05-07 16:28 48.67651 11.37084 23865 ft 410 kts 342°
2026-05-07 16:28 48.70338 11.35692 23993 ft 407 kts 334°
2026-05-07 16:28 48.72843 11.33732 24022 ft 404 kts 325°
2026-05-07 16:29 48.75177 11.31362 24022 ft 404 kts 323°
2026-05-07 16:29 48.77508 11.28984 24023 ft 404 kts 323°
2026-05-07 16:29 48.79841 11.26623 24022 ft 404 kts 323°
2026-05-07 16:29 48.82178 11.24260 24023 ft 404 kts 323°
2026-05-07 16:30 48.84483 11.21821 24027 ft 403 kts 319°
2026-05-07 16:30 48.86586 11.19019 24026 ft 402 kts 314°
2026-05-07 16:30 48.88637 11.16136 24026 ft 402 kts 315°
2026-05-07 16:30 48.90692 11.13274 24027 ft 402 kts 315°
2026-05-07 16:31 48.92760 11.10399 24033 ft 403 kts 315°
2026-05-07 16:31 48.94827 11.07521 24032 ft 402 kts 315°
2026-05-07 16:31 48.96892 11.04640 24043 ft 403 kts 315°
2026-05-07 16:31 48.98953 11.01756 24042 ft 402 kts 315°
2026-05-07 16:32 49.01012 10.98868 24052 ft 403 kts 315°
2026-05-07 16:32 49.03075 10.95971 24057 ft 403 kts 315°
2026-05-07 16:32 49.05130 10.93081 24063 ft 403 kts 315°
2026-05-07 16:32 49.07196 10.90173 24067 ft 403 kts 315°
2026-05-07 16:33 49.09253 10.87274 24069 ft 403 kts 315°
2026-05-07 16:33 49.11312 10.84365 24073 ft 403 kts 315°
2026-05-07 16:33 49.13370 10.81453 24077 ft 404 kts 315°
2026-05-07 16:33 49.15431 10.78534 24078 ft 404 kts 315°
2026-05-07 16:34 49.17488 10.75617 24080 ft 404 kts 315°
2026-05-07 16:34 49.19549 10.72692 24086 ft 404 kts 315°
2026-05-07 16:34 49.21574 10.69709 24085 ft 404 kts 312°
2026-05-07 16:34 49.23526 10.66623 24090 ft 404 kts 311°
2026-05-07 16:35 49.25466 10.63500 24093 ft 404 kts 311°
2026-05-07 16:35 49.27407 10.60387 24090 ft 404 kts 311°
2026-05-07 16:35 49.29352 10.57285 24087 ft 405 kts 311°
2026-05-07 16:35 49.31312 10.54177 24083 ft 405 kts 312°
2026-05-07 16:36 49.33274 10.51070 24086 ft 405 kts 312°
2026-05-07 16:36 49.35231 10.47964 24078 ft 405 kts 311°
2026-05-07 16:36 49.37017 10.44633 24070 ft 404 kts 303°
2026-05-07 16:36 49.38613 10.41091 24063 ft 403 kts 303°
2026-05-07 16:37 49.40220 10.37557 24057 ft 404 kts 303°
2026-05-07 16:37 49.41831 10.34033 23872 ft 402 kts 303°
2026-05-07 16:37 49.43411 10.30572 23651 ft 401 kts 303°
2026-05-07 16:37 49.45006 10.27074 23364 ft 399 kts 303°
2026-05-07 16:38 49.46593 10.23586 23078 ft 398 kts 303°
2026-05-07 16:38 49.48174 10.20106 22819 ft 396 kts 303°
2026-05-07 16:38 49.49747 10.16636 22547 ft 394 kts 303°
2026-05-07 16:38 49.51312 10.13179 22274 ft 393 kts 303°
2026-05-07 16:39 49.52871 10.09729 22009 ft 392 kts 302°
2026-05-07 16:39 49.54421 10.06296 21782 ft 391 kts 302°
2026-05-07 16:39 49.55968 10.02865 21601 ft 390 kts 302°
2026-05-07 16:39 49.57510 9.99441 21450 ft 389 kts 302°
2026-05-07 16:40 49.59051 9.96015 21239 ft 388 kts 302°
2026-05-07 16:40 49.60584 9.92601 20950 ft 387 kts 302°
2026-05-07 16:40 49.62109 9.89202 20475 ft 383 kts 303°
2026-05-07 16:40 49.63616 9.85841 19931 ft 379 kts 303°
2026-05-07 16:41 49.65110 9.82500 19361 ft 377 kts 303°
2026-05-07 16:41 49.66592 9.79183 18791 ft 375 kts 303°
2026-05-07 16:41 49.68067 9.75879 18228 ft 372 kts 303°
2026-05-07 16:41 49.69525 9.72608 17635 ft 369 kts 303°
2026-05-07 16:42 49.70968 9.69367 17107 ft 366 kts 303°
2026-05-07 16:42 49.72404 9.66139 16546 ft 363 kts 303°
2026-05-07 16:42 49.73829 9.62930 16019 ft 360 kts 303°
2026-05-07 16:42 49.75238 9.59754 15451 ft 357 kts 303°
2026-05-07 16:43 49.76633 9.56604 14886 ft 354 kts 303°
2026-05-07 16:43 49.78016 9.53477 14339 ft 351 kts 303°
2026-05-07 16:43 49.79384 9.50382 13774 ft 348 kts 303°
2026-05-07 16:43 49.80745 9.47298 13214 ft 344 kts 303°
2026-05-07 16:44 49.82072 9.44292 12766 ft 339 kts 303°
2026-05-07 16:44 49.83363 9.41365 12565 ft 318 kts 303°
2026-05-07 16:44 49.84574 9.38615 12313 ft 292 kts 303°
2026-05-07 16:44 49.85631 9.36130 12108 ft 268 kts 298°
2026-05-07 16:45 49.86429 9.33635 11669 ft 254 kts 290°
2026-05-07 16:45 49.86982 9.31053 11011 ft 251 kts 284°
2026-05-07 16:45 49.87451 9.28477 10677 ft 248 kts 284°
2026-05-07 16:45 49.87940 9.25882 10629 ft 251 kts 285°
2026-05-07 16:46 49.88434 9.23301 10533 ft 249 kts 285°
2026-05-07 16:46 49.88926 9.20735 10440 ft 249 kts 285°
2026-05-07 16:46 49.89417 9.18167 10301 ft 248 kts 285°
2026-05-07 16:46 49.89908 9.15595 10208 ft 249 kts 285°
2026-05-07 16:47 49.90397 9.13028 10087 ft 248 kts 285°
2026-05-07 16:47 49.90882 9.10480 9778 ft 246 kts 285°
2026-05-07 16:47 49.91369 9.07914 9694 ft 247 kts 284°
2026-05-07 16:47 49.91854 9.05354 9593 ft 247 kts 285°
2026-05-07 16:48 49.92335 9.02811 9487 ft 246 kts 284°
2026-05-07 16:48 49.92815 9.00264 9393 ft 245 kts 284°
2026-05-07 16:48 49.93292 8.97739 9294 ft 244 kts 284°
2026-05-07 16:48 49.93768 8.95215 9191 ft 244 kts 285°
2026-05-07 16:49 49.94548 8.92892 9103 ft 247 kts 309°
2026-05-07 16:49 49.95954 8.91355 9093 ft 252 kts 337°
2026-05-07 16:49 49.97689 8.91008 9042 ft 255 kts
2026-05-07 16:49 49.99354 8.91917 8720 ft 258 kts 32°
2026-05-07 16:50 50.00535 8.93766 8237 ft 258 kts 58°
2026-05-07 16:50 50.01364 8.96245 7538 ft 258 kts 63°
2026-05-07 16:50 50.02153 8.98741 6972 ft 256 kts 63°
2026-05-07 16:50 50.02932 9.01210 6460 ft 254 kts 64°
2026-05-07 16:51 50.03709 9.03670 5923 ft 253 kts 64°
2026-05-07 16:51 50.04479 9.06117 5403 ft 251 kts 63°
2026-05-07 16:51 50.05241 9.08539 4966 ft 248 kts 64°
2026-05-07 16:51 50.06002 9.10943 4439 ft 248 kts 64°
2026-05-07 16:52 50.06765 9.13310 4006 ft 243 kts 58°
2026-05-07 16:52 50.07939 9.15112 3819 ft 241 kts 27°
2026-05-07 16:52 50.09531 9.15768 3785 ft 235 kts 356°
2026-05-07 16:52 50.11072 9.15121 3783 ft 230 kts 326°
2026-05-07 16:53 50.12172 9.13376 3767 ft 226 kts 296°
2026-05-07 16:53 50.12661 9.11086 3769 ft 223 kts 283°
2026-05-07 16:53 50.13074 9.08759 3790 ft 224 kts 283°
2026-05-07 16:53 50.13495 9.06419 3798 ft 225 kts 283°
2026-05-07 16:54 50.13901 9.04072 3810 ft 224 kts 281°
2026-05-07 16:54 50.14014 9.01689 3818 ft 220 kts 263°
2026-05-07 16:54 50.13695 8.99347 3830 ft 222 kts 253°
2026-05-07 16:54 50.13188 8.97084 3843 ft 221 kts 249°
2026-05-07 16:55 50.12646 8.94847 3850 ft 220 kts 249°
2026-05-07 16:55 50.12115 8.92607 3873 ft 222 kts 250°
2026-05-07 16:55 50.11578 8.90357 3878 ft 221 kts 249°
2026-05-07 16:55 50.11046 8.88127 3890 ft 220 kts 250°
2026-05-07 16:56 50.10510 8.85881 3903 ft 218 kts 250°
2026-05-07 16:56 50.10005 8.83762 3904 ft 206 kts 250°
2026-05-07 16:56 50.09028 8.79667 3428 ft 198 kts 250°
2026-05-07 16:57 50.08550 8.77666 3176 ft 196 kts 250°
2026-05-07 16:57 50.08068 8.75645 2936 ft 204 kts 250°
2026-05-07 16:57 50.07593 8.73670 2671 ft 181 kts 252°
2026-05-07 16:57 50.07174 8.71906 2463 ft 172 kts 252°
2026-05-07 16:58 50.06797 8.70336 2250 ft 153 kts 253°
2026-05-07 16:58 50.06557 8.69329 2107 ft 141 kts 253°
2026-05-07 16:58 50.06111 8.67459 1856 ft 137 kts 253°
2026-05-07 16:58 50.05781 8.66074 1674 ft 137 kts 253°
2026-05-07 16:59 50.05445 8.64661 1438 ft 140 kts 253°
2026-05-07 16:59 50.05107 8.63252 1181 ft 139 kts 252°
2026-05-07 16:59 50.04767 8.61829 920 ft 140 kts 251°
2026-05-07 16:59 50.04423 8.60406 689 ft 140 kts 250°
2026-05-07 17:00 50.04088 8.58987 454 ft 141 kts 249°
2026-05-07 17:00 50.03864 8.58049 370 ft 136 kts 248°
2026-05-07 17:00 50.03582 8.56878 361 ft 86 kts 249°
2026-05-07 17:00 50.03452 8.56319 354 ft 24 kts 255°
2026-05-07 17:01 50.03439 8.56078 353 ft 21 kts 278°
2026-05-07 17:01 50.03461 8.55852 355 ft 22 kts 279°
2026-05-07 17:01 50.03485 8.55625 357 ft 23 kts 279°
2026-05-07 17:01 50.03471 8.55391 361 ft 22 kts 250°
2026-05-07 17:02 50.03421 8.55167 356 ft 22 kts 251°
2026-05-07 17:02 50.03367 8.54937 356 ft 23 kts 250°
2026-05-07 17:02 50.03308 8.54705 358 ft 23 kts 248°
2026-05-07 17:02 50.03281 8.54565 361 ft 3 kts 277°
2026-05-07 17:03 50.03309 8.54499 361 ft 9 kts 320°
2026-05-07 17:03 50.03386 8.54441 358 ft 17 kts 340°
2026-05-07 17:03 50.03519 8.54373 357 ft 17 kts 336°
2026-05-07 17:03 50.03595 8.54322 359 ft 18 kts 341°
2026-05-07 17:04 50.03639 8.54327 357 ft 4 kts 38°
2026-05-07 17:04 50.03663 8.54367 360 ft 6 kts 53°
2026-05-07 17:04 50.03684 8.54430 358 ft 7 kts 66°
2026-05-07 17:04 50.03706 8.54512 355 ft 9 kts 69°
2026-05-07 17:05 50.03730 8.54612 358 ft 11 kts 69°
2026-05-07 17:05 50.03742 8.54662 357 ft 0 kts 70°